| time (UTC) | temp C | wind direction | speed KPH | gust KPH | rain 1hr cm | rain 24hr cm | rain mn cm | humidity % | barometer mb |
| 20260509203524 | 19 | 291 | 1.6 | 6.4 | 0.00 | 0.00 | 0.00 | 63 | 1020.0 |
| 20260509203049 | 19 | 185 | 3.2 | 11.3 | 0.00 | 0.00 | 0.00 | 63 | 1020.0 |
| 20260509202528 | 19 | 119 | 1.6 | 11.3 | 0.00 | 0.00 | 0.00 | 63 | 1019.9 |
| 20260509202025 | 19 | 28 | 3.2 | 9.7 | 0.00 | 0.00 | 0.00 | 66 | 1019.9 |
| 20260509201540 | 19 | 90 | 4.8 | 9.7 | 0.00 | 0.00 | 0.00 | 63 | 1019.9 |
| 20260509201028 | 19 | 171 | 3.2 | 11.3 | 0.00 | 0.00 | 0.00 | 66 | 1020.2 |
| 20260509200526 | 18 | 25 | 4.8 | 12.9 | 0.00 | 0.00 | 0.00 | 68 | 1020.2 |
| 20260509200041 | 18 | 12 | 4.8 | 12.9 | 0.00 | 0.00 | 0.00 | 66 | 1020.4 |
| 20260509195526 | 18 | 302 | 6.4 | 11.3 | 0.00 | 0.00 | 0.00 | 66 | 1020.4 |
| 20260509195026 | 18 | 288 | 3.2 | 12.9 | 0.00 | 0.00 | 0.00 | 66 | 1020.4 |
| 20260509194543 | 18 | 0 | 3.2 | 12.9 | 0.00 | 0.00 | 0.00 | 68 | 1020.4 |
| 20260509194026 | 18 | 40 | 6.4 | 12.9 | 0.00 | 0.00 | 0.00 | 68 | 1020.5 |
| 20260509193530 | 18 | 58 | 3.2 | 14.5 | 0.00 | 0.00 | 0.00 | 68 | 1020.4 |
| 20260509193045 | 18 | 219 | 0.0 | 14.5 | 0.00 | 0.00 | 0.00 | 70 | 1020.5 |
| 20260509192527 | 18 | 319 | 8.0 | 14.5 | 0.00 | 0.00 | 0.00 | 68 | 1020.6 |
| 20260509192027 | 18 | 307 | 1.6 | 12.9 | 0.00 | 0.00 | 0.00 | 67 | 1020.8 |
| 20260509191542 | 18 | 321 | 6.4 | 12.9 | 0.00 | 0.00 | 0.00 | 67 | 1020.8 |
| 20260509191030 | 18 | 321 | 6.4 | 17.7 | 0.00 | 0.00 | 0.00 | 69 | 1020.9 |
| 20260509190526 | 18 | 304 | 3.2 | 17.7 | 0.00 | 0.00 | 0.00 | 68 | 1020.9 |
| 20260509190047 | 18 | 26 | 8.0 | 17.7 | 0.00 | 0.00 | 0.00 | 68 | 1020.9 |
| 20260509185526 | 18 | 129 | 1.6 | 17.7 | 0.00 | 0.00 | 0.00 | 68 | 1020.9 |
| 20260509185026 | 17 | 22 | 6.4 | 17.7 | 0.00 | 0.00 | 0.00 | 70 | 1020.9 |
| 20260509184540 | 17 | 298 | 6.4 | 12.9 | 0.00 | 0.00 | 0.00 | 70 | 1021.0 |
| 20260509184027 | 18 | 331 | 3.2 | 9.7 | 0.00 | 0.00 | 0.00 | 70 | 1021.0 |
| 20260509183531 | 18 | 284 | 3.2 | 8.0 | 0.00 | 0.00 | 0.00 | 69 | 1021.0 |
| 20260509183041 | 17 | 89 | 1.6 | 9.7 | 0.00 | 0.00 | 0.00 | 72 | 1021.0 |
| 20260509182526 | 17 | 103 | 3.2 | 9.7 | 0.00 | 0.00 | 0.00 | 71 | 1021.1 |
| 20260509182026 | 17 | 306 | 1.6 | 11.3 | 0.00 | 0.00 | 0.00 | 72 | 1021.2 |
| 20260509181540 | 17 | 321 | 1.6 | 11.3 | 0.00 | 0.00 | 0.00 | 73 | 1021.0 |
| 20260509181027 | 17 | 300 | 0.0 | 11.3 | 0.00 | 0.00 | 0.00 | 74 | 1021.1 |
| 20260509180527 | 17 | 49 | 3.2 | 11.3 | 0.00 | 0.00 | 0.00 | 71 | 1021.3 |
| 20260509180040 | 17 | 313 | 0.0 | 8.0 | 0.00 | 0.00 | 0.00 | 74 | 1021.2 |
| 20260509175526 | 17 | 26 | 3.2 | 8.0 | 0.00 | 0.00 | 0.00 | 74 | 1021.1 |
| 20260509175026 | 16 | 89 | 3.2 | 16.1 | 0.00 | 0.00 | 0.00 | 75 | 1021.2 |
| 20260509174541 | 16 | 312 | 3.2 | 16.1 | 0.00 | 0.00 | 0.00 | 75 | 1021.3 |
| 20260509174030 | 16 | 15 | 6.4 | 14.5 | 0.00 | 0.00 | 0.00 | 77 | 1021.2 |
| 20260509173525 | 16 | 319 | 6.4 | 11.3 | 0.00 | 0.00 | 0.00 | 76 | 1021.4 |
| 20260509173041 | 15 | 32 | 4.8 | 11.3 | 0.00 | 0.00 | 0.00 | 78 | 1021.3 |
| 20260509172529 | 15 | 352 | 4.8 | 12.9 | 0.00 | 0.00 | 0.00 | 78 | 1021.5 |
| 20260509172025 | 15 | 322 | 6.4 | 12.9 | 0.00 | 0.00 | 0.00 | 80 | 1021.5 |
| 20260509171541 | 15 | 340 | 6.4 | 20.9 | 0.00 | 0.00 | 0.00 | 79 | 1021.5 |
| 20260509171026 | 15 | 315 | 4.8 | 20.9 | 0.00 | 0.00 | 0.00 | 80 | 1021.6 |
| 20260509170526 | 15 | 63 | 8.0 | 20.9 | 0.00 | 0.00 | 0.00 | 81 | 1021.7 |
| 20260509170041 | 15 | 194 | 1.6 | 8.0 | 0.00 | 0.00 | 0.00 | 82 | 1021.7 |
| 20260509165527 | 15 | 310 | 3.2 | 14.5 | 0.00 | 0.00 | 0.00 | 81 | 1021.7 |
| 20260509165026 | 14 | 38 | 6.4 | 14.5 | 0.00 | 0.00 | 0.00 | 82 | 1021.7 |
| 20260509164540 | 14 | 336 | 4.8 | 8.0 | 0.00 | 0.00 | 0.00 | 84 | 1021.7 |
| 20260509164027 | 14 | 318 | 3.2 | 11.3 | 0.00 | 0.00 | 0.00 | 83 | 1021.7 |
| 20260509163526 | 13 | 19 | 3.2 | 11.3 | 0.00 | 0.00 | 0.00 | 86 | 1021.8 |
| 20260509163050 | 13 | 306 | 6.4 | 11.3 | 0.00 | 0.00 | 0.00 | 85 | 1021.8 |
| 20260509162526 | 13 | 311 | 3.2 | 12.9 | 0.00 | 0.00 | 0.00 | 87 | 1021.9 |
| 20260509162026 | 13 | 278 | 3.2 | 12.9 | 0.00 | 0.00 | 0.00 | 88 | 1022.0 |
| 20260509161542 | 12 | 321 | 3.2 | 6.4 | 0.00 | 0.00 | 0.00 | 88 | 1022.1 |
| 20260509161031 | 12 | 317 | 1.6 | 8.0 | 0.00 | 0.00 | 0.00 | 89 | 1022.0 |
| 20260509160526 | 12 | 11 | 3.2 | 8.0 | 0.00 | 0.00 | 0.00 | 89 | 1022.1 |
| 20260509160041 | 12 | 23 | 1.6 | 8.0 | 0.00 | 0.00 | 0.00 | 90 | 1022.1 |
| 20260509155525 | 12 | 0 | 1.6 | 8.0 | 0.00 | 0.00 | 0.00 | 92 | 1022.1 |
| 20260509155029 | 12 | 352 | 3.2 | 8.0 | 0.00 | 0.00 | 0.00 | 92 | 1022.3 |
| 20260509154542 | 11 | 302 | 3.2 | 9.7 | 0.00 | 0.00 | 0.00 | 93 | 1022.4 |
| 20260509154026 | 11 | 299 | 3.2 | 11.3 | 0.00 | 0.00 | 0.00 | 94 | 1022.3 |
| 20260509153525 | 11 | 12 | 1.6 | 12.9 | 0.00 | 0.00 | 0.00 | 96 | 1022.4 |
| 20260509153038 | 11 | 338 | 4.8 | 12.9 | 0.00 | 0.00 | 0.00 | 96 | 1022.4 |
| 20260509152526 | 11 | 336 | 1.6 | 8.0 | 0.00 | 0.00 | 0.00 | 97 | 1022.4 |
| 20260509152027 | 10 | 34 | 3.2 | 8.0 | 0.00 | 0.00 | 0.00 | 97 | 1022.6 |
| 20260509151541 | 10 | 304 | 0.0 | 3.2 | 0.00 | 0.00 | 0.00 | 98 | 1022.7 |
| 20260509151026 | 10 | 284 | 1.6 | 3.2 | 0.00 | 0.00 | 0.00 | 98 | 1022.6 |
| 20260509150529 | 9 | 313 | 0.0 | 4.8 | 0.00 | 0.00 | 0.00 | 98 | 1022.8 |
| 20260509150049 | 9 | 313 | 1.6 | 4.8 | 0.00 | 0.00 | 0.00 | 97 | 1022.8 |
| 20260509145526 | 8 | 325 | 1.6 | 3.2 | 0.00 | 0.00 | 0.00 | 97 | 1022.7 |
| 20260509145026 | 8 | 0 | 0.0 | 0.0 | 0.00 | 0.00 | 0.00 | 98 | 1022.7 |
| 20260509144544 | 8 | 0 | 0.0 | 0.0 | 0.00 | 0.00 | 0.00 | 98 | 1022.7 |
| 20260509144026 | 8 | 0 | 0.0 | 0.0 | 0.00 | 0.00 | 0.00 | 97 | 1022.7 |
| 20260509143527 | 7 | 0 | 0.0 | 0.0 | 0.00 | 0.00 | 0.00 | 97 | 1022.8 |
| 20260509143045 | 7 | 0 | 0.0 | 0.0 | 0.00 | 0.00 | 0.00 | 97 | 1022.8 |
| 20260509142526 | 7 | 0 | 0.0 | 0.0 | 0.00 | 0.00 | 0.00 | 97 | 1022.7 |
| 20260509142026 | 7 | 299 | 0.0 | 0.0 | 0.00 | 0.00 | 0.00 | 97 | 1022.6 |
| 20260509141544 | 7 | 0 | 0.0 | 0.0 | 0.00 | 0.00 | 0.00 | 97 | 1022.7 |
| 20260509141026 | 7 | 299 | 0.0 | 0.0 | 0.00 | 0.00 | 0.00 | 98 | 1022.7 |
| 20260509140525 | 7 | 0 | 0.0 | 0.0 | 0.00 | 0.00 | 0.00 | 98 | 1022.6 |
| 20260509140051 | 6 | 0 | 0.0 | 3.2 | 0.00 | 0.00 | 0.00 | 98 | 1022.6 |
| 20260509135530 | 6 | 299 | 0.0 | 3.2 | 0.00 | 0.00 | 0.00 | 98 | 1022.6 |
| 20260509135026 | 5 | 299 | 0.0 | 3.2 | 0.00 | 0.00 | 0.00 | 97 | 1022.6 |
| 20260509134549 | 5 | 0 | 0.0 | 1.6 | 0.00 | 0.00 | 0.00 | 97 | 1022.4 |
| 20260509134026 | 5 | 35 | 0.0 | 1.6 | 0.00 | 0.00 | 0.00 | 97 | 1022.4 |
| 20260509133526 | 5 | 35 | 0.0 | 0.0 | 0.00 | 0.00 | 0.00 | 97 | 1022.4 |
| 20260509133053 | 5 | 0 | 0.0 | 0.0 | 0.00 | 0.00 | 0.00 | 97 | 1022.4 |
| 20260509132527 | 5 | 0 | 0.0 | 0.0 | 0.00 | 0.00 | 0.00 | 97 | 1022.3 |
| 20260509132026 | 5 | 0 | 0.0 | 0.0 | 0.00 | 0.00 | 0.00 | 96 | 1022.5 |
| 20260509131542 | 5 | 0 | 0.0 | 1.6 | 0.00 | 0.00 | 0.00 | 97 | 1022.3 |
| 20260509131026 | 5 | 0 | 0.0 | 1.6 | 0.00 | 0.00 | 0.00 | 97 | 1022.4 |
| 20260509130526 | 5 | 0 | 0.0 | 0.0 | 0.00 | 0.00 | 0.00 | 97 | 1022.5 |
| 20260509130046 | 5 | 0 | 0.0 | 0.0 | 0.00 | 0.00 | 0.00 | 97 | 1022.5 |
| 20260509125525 | 5 | 0 | 0.0 | 0.0 | 0.00 | 0.00 | 0.00 | 97 | 1022.6 |
| 20260509125025 | 5 | 0 | 0.0 | 0.0 | 0.00 | 0.00 | 0.00 | 97 | 1022.6 |
| 20260509124543 | 6 | 0 | 0.0 | 0.0 | 0.00 | 0.00 | 0.00 | 96 | 1022.7 |
| 20260509124026 | 6 | 0 | 0.0 | 1.6 | 0.00 | 0.00 | 0.00 | 97 | 1022.6 |
| 20260509123526 | 6 | 0 | 0.0 | 1.6 | 0.00 | 0.00 | 0.00 | 97 | 1022.5 |
| 20260509123041 | 6 | 0 | 0.0 | 1.6 | 0.00 | 0.00 | 0.00 | 97 | 1022.7 |
| 20260509122526 | 6 | 0 | 0.0 | 1.6 | 0.00 | 0.00 | 0.00 | 97 | 1022.6 |
| 20260509122025 | 6 | 0 | 0.0 | 1.6 | 0.00 | 0.00 | 0.00 | 97 | 1022.6 |
| 20260509121542 | 6 | 34 | 0.0 | 1.6 | 0.00 | 0.00 | 0.00 | 97 | 1022.6 |
| 20260509121025 | 6 | 0 | 0.0 | 1.6 | 0.00 | 0.00 | 0.00 | 97 | 1022.7 |
| 20260509120526 | 6 | 0 | 0.0 | 1.6 | 0.00 | 0.00 | 0.00 | 97 | 1022.7 |
| 20260509120044 | 6 | 0 | 0.0 | 1.6 | 0.00 | 0.00 | 0.00 | 97 | 1022.7 |
| 20260509115526 | 6 | 0 | 0.0 | 0.0 | 0.00 | 0.00 | 0.00 | 97 | 1022.7 |
| 20260509115026 | 6 | 0 | 0.0 | 0.0 | 0.00 | 0.00 | 0.00 | 97 | 1022.8 |
| 20260509114550 | 6 | 0 | 0.0 | 0.0 | 0.00 | 0.00 | 0.00 | 97 | 1022.8 |
| 20260509114030 | 6 | 0 | 0.0 | 0.0 | 0.00 | 0.00 | 0.00 | 97 | 1022.9 |
| 20260509113526 | 6 | 0 | 0.0 | 1.6 | 0.00 | 0.00 | 0.00 | 97 | 1022.9 |
| 20260509113044 | 6 | 0 | 0.0 | 1.6 | 0.00 | 0.00 | 0.00 | 97 | 1022.9 |
| 20260509112525 | 6 | 36 | 0.0 | 1.6 | 0.00 | 0.00 | 0.00 | 97 | 1023.0 |
| 20260509112025 | 6 | 311 | 0.0 | 1.6 | 0.00 | 0.00 | 0.00 | 97 | 1023.0 |
| 20260509111539 | 6 | 311 | 0.0 | 1.6 | 0.00 | 0.00 | 0.00 | 97 | 1023.2 |
| 20260509111025 | 6 | 0 | 0.0 | 0.0 | 0.00 | 0.00 | 0.00 | 97 | 1023.2 |
| 20260509110525 | 6 | 0 | 0.0 | 0.0 | 0.00 | 0.00 | 0.00 | 97 | 1023.1 |
| 20260509110041 | 6 | 0 | 0.0 | 0.0 | 0.00 | 0.00 | 0.00 | 97 | 1023.2 |
| 20260509105531 | 6 | 0 | 0.0 | 0.0 | 0.00 | 0.00 | 0.00 | 97 | 1023.2 |
| 20260509105026 | 6 | 0 | 0.0 | 1.6 | 0.00 | 0.00 | 0.00 | 97 | 1023.1 |
| 20260509104545 | 6 | 0 | 0.0 | 1.6 | 0.00 | 0.00 | 0.00 | 97 | 1023.2 |
| 20260509104024 | 6 | 312 | 0.0 | 0.0 | 0.00 | 0.00 | 0.00 | 97 | 1023.1 |
| 20260509103526 | 6 | 312 | 0.0 | 0.0 | 0.00 | 0.00 | 0.00 | 97 | 1023.1 |
| 20260509103042 | 6 | 0 | 0.0 | 0.0 | 0.00 | 0.00 | 0.00 | 97 | 1023.2 |
| 20260509102527 | 6 | 0 | 0.0 | 0.0 | 0.00 | 0.00 | 0.00 | 97 | 1023.2 |
| 20260509102026 | 6 | 312 | 0.0 | 0.0 | 0.00 | 0.00 | 0.00 | 97 | 1023.2 |
| 20260509101541 | 6 | 0 | 0.0 | 0.0 | 0.00 | 0.00 | 0.00 | 97 | 1023.2 |
| 20260509101025 | 6 | 0 | 0.0 | 0.0 | 0.00 | 0.00 | 0.00 | 97 | 1023.2 |
| 20260509100525 | 6 | 0 | 0.0 | 0.0 | 0.00 | 0.00 | 0.00 | 97 | 1023.3 |
| 20260509100041 | 6 | 0 | 0.0 | 0.0 | 0.00 | 0.00 | 0.00 | 97 | 1023.3 |
| 20260509095526 | 5 | 312 | 0.0 | 0.0 | 0.00 | 0.00 | 0.00 | 97 | 1023.3 |
| 20260509095026 | 5 | 0 | 0.0 | 0.0 | 0.00 | 0.00 | 0.00 | 96 | 1023.4 |
| 20260509094541 | 5 | 0 | 0.0 | 0.0 | 0.00 | 0.00 | 0.00 | 96 | 1023.4 |
| 20260509094025 | 5 | 0 | 0.0 | 0.0 | 0.00 | 0.00 | 0.00 | 96 | 1023.4 |
| 20260509093525 | 5 | 0 | 0.0 | 0.0 | 0.00 | 0.00 | 0.00 | 96 | 1023.4 |
| 20260509093042 | 5 | 0 | 0.0 | 0.0 | 0.00 | 0.00 | 0.00 | 96 | 1023.5 |
| 20260509092526 | 5 | 0 | 0.0 | 0.0 | 0.00 | 0.00 | 0.00 | 96 | 1023.5 |
| 20260509092025 | 5 | 0 | 0.0 | 0.0 | 0.00 | 0.00 | 0.00 | 96 | 1023.5 |
| 20260509091538 | 5 | 0 | 0.0 | 0.0 | 0.00 | 0.00 | 0.00 | 96 | 1023.5 |
| 20260509091025 | 5 | 0 | 0.0 | 0.0 | 0.00 | 0.00 | 0.00 | 95 | 1023.5 |
| 20260509090525 | 6 | 0 | 0.0 | 0.0 | 0.00 | 0.00 | 0.00 | 95 | 1023.5 |
| 20260509090044 | 6 | 0 | 0.0 | 0.0 | 0.00 | 0.00 | 0.00 | 95 | 1023.6 |
| 20260509085525 | 6 | 0 | 0.0 | 1.6 | 0.00 | 0.00 | 0.00 | 95 | 1023.6 |
| 20260509085026 | 6 | 0 | 0.0 | 1.6 | 0.00 | 0.00 | 0.00 | 96 | 1023.7 |
| 20260509084547 | 6 | 311 | 0.0 | 1.6 | 0.00 | 0.00 | 0.00 | 96 | 1023.8 |
| 20260509084025 | 6 | 311 | 0.0 | 1.6 | 0.00 | 0.00 | 0.00 | 95 | 1023.8 |
| 20260509083529 | 6 | 311 | 0.0 | 0.0 | 0.00 | 0.00 | 0.00 | 96 | 1023.8 |
| 20260509083040 | 6 | 0 | 0.0 | 0.0 | 0.00 | 0.00 | 0.00 | 95 | 1023.8 |
| 20260509082525 | 7 | 0 | 0.0 | 0.0 | 0.00 | 0.00 | 0.00 | 95 | 1023.8 |
| 20260509082025 | 7 | 0 | 0.0 | 0.0 | 0.00 | 0.00 | 0.00 | 95 | 1023.8 |
| 20260509081540 | 7 | 0 | 0.0 | 0.0 | 0.00 | 0.00 | 0.00 | 95 | 1023.8 |
| 20260509081026 | 7 | 0 | 0.0 | 3.2 | 0.00 | 0.00 | 0.00 | 95 | 1023.8 |
| 20260509080525 | 7 | 0 | 0.0 | 3.2 | 0.00 | 0.00 | 0.00 | 95 | 1023.8 |
| 20260509080055 | 7 | 0 | 0.0 | 1.6 | 0.00 | 0.00 | 0.00 | 95 | 1023.7 |
| 20260509075529 | 7 | 0 | 0.0 | 1.6 | 0.00 | 0.00 | 0.00 | 95 | 1023.7 |
| 20260509075028 | 7 | 111 | 0.0 | 1.6 | 0.00 | 0.00 | 0.00 | 95 | 1023.7 |
| 20260509074543 | 7 | 114 | 0.0 | 1.6 | 0.00 | 0.00 | 0.00 | 95 | 1023.7 |
| 20260509074025 | 7 | 0 | 0.0 | 0.0 | 0.00 | 0.00 | 0.00 | 94 | 1023.6 |
| 20260509073526 | 7 | 0 | 0.0 | 0.0 | 0.00 | 0.00 | 0.00 | 94 | 1023.6 |
| 20260509073133 | 7 | 0 | 0.0 | 0.0 | 0.00 | 0.00 | 0.00 | 94 | 1023.7 |
| 20260509072526 | 8 | 0 | 0.0 | 0.0 | 0.00 | 0.00 | 0.00 | 94 | 1023.7 |
| 20260509072026 | 8 | 0 | 0.0 | 0.0 | 0.00 | 0.00 | 0.00 | 94 | 1023.7 |
| 20260509071542 | 8 | 0 | 0.0 | 1.6 | 0.00 | 0.00 | 0.00 | 93 | 1023.6 |
| 20260509071026 | 8 | 0 | 0.0 | 1.6 | 0.00 | 0.00 | 0.00 | 93 | 1023.6 |
| 20260509070526 | 8 | 0 | 0.0 | 1.6 | 0.00 | 0.00 | 0.00 | 93 | 1023.6 |
| 20260509070044 | 8 | 0 | 0.0 | 1.6 | 0.00 | 0.00 | 0.00 | 94 | 1023.6 |
| 20260509065530 | 8 | 0 | 0.0 | 1.6 | 0.00 | 0.00 | 0.00 | 93 | 1023.6 |
| 20260509065025 | 8 | 0 | 0.0 | 1.6 | 0.00 | 0.00 | 0.00 | 93 | 1023.5 |
| 20260509064544 | 8 | 118 | 0.0 | 1.6 | 0.00 | 0.00 | 0.00 | 92 | 1023.5 |
| 20260509064026 | 9 | 143 | 0.0 | 1.6 | 0.00 | 0.00 | 0.00 | 92 | 1023.6 |
| 20260509063528 | 9 | 143 | 0.0 | 1.6 | 0.00 | 0.00 | 0.00 | 91 | 1023.5 |
| 20260509063039 | 10 | 143 | 0.0 | 1.6 | 0.00 | 0.00 | 0.00 | 91 | 1023.6 |
| 20260509062525 | 10 | 0 | 0.0 | 0.0 | 0.00 | 0.00 | 0.00 | 91 | 1023.5 |
| 20260509062028 | 10 | 0 | 0.0 | 1.6 | 0.00 | 0.00 | 0.00 | 90 | 1023.5 |
| 20260509061553 | 10 | 0 | 0.0 | 1.6 | 0.00 | 0.00 | 0.00 | 91 | 1023.5 |
| 20260509061025 | 10 | 133 | 0.0 | 1.6 | 0.00 | 0.00 | 0.00 | 90 | 1023.5 |
| 20260509060526 | 10 | 155 | 0.0 | 1.6 | 0.00 | 0.00 | 0.00 | 90 | 1023.4 |
| 20260509060044 | 10 | 155 | 0.0 | 3.2 | 0.00 | 0.00 | 0.00 | 90 | 1023.4 |
| 20260509055525 | 10 | 157 | 1.6 | 3.2 | 0.00 | 0.00 | 0.00 | 90 | 1023.4 |
| 20260509055029 | 10 | 165 | 1.6 | 3.2 | 0.00 | 0.00 | 0.00 | 89 | 1023.4 |
| 20260509054544 | 11 | 165 | 1.6 | 4.8 | 0.00 | 0.00 | 0.00 | 89 | 1023.4 |
| 20260509054026 | 11 | 142 | 3.2 | 4.8 | 0.00 | 0.00 | 0.00 | 89 | 1023.4 |
| 20260509053526 | 11 | 142 | 3.2 | 6.4 | 0.00 | 0.00 | 0.00 | 89 | 1023.4 |
| 20260509053045 | 11 | 156 | 3.2 | 6.4 | 0.00 | 0.00 | 0.00 | 88 | 1023.4 |
| 20260509052526 | 11 | 168 | 3.2 | 6.4 | 0.00 | 0.00 | 0.00 | 88 | 1023.4 |
| 20260509052025 | 11 | 184 | 3.2 | 6.4 | 0.00 | 0.00 | 0.00 | 87 | 1023.4 |
| 20260509051540 | 11 | 165 | 3.2 | 6.4 | 0.00 | 0.00 | 0.00 | 86 | 1023.4 |
| 20260509051025 | 11 | 157 | 3.2 | 9.7 | 0.00 | 0.00 | 0.00 | 86 | 1023.4 |
| 20260509050525 | 12 | 233 | 3.2 | 9.7 | 0.00 | 0.00 | 0.00 | 86 | 1023.2 |
| 20260509050040 | 12 | 211 | 4.8 | 11.3 | 0.00 | 0.00 | 0.00 | 86 | 1023.3 |
| 20260509045528 | 12 | 203 | 6.4 | 11.3 | 0.00 | 0.00 | 0.00 | 86 | 1023.2 |
| 20260509045028 | 12 | 212 | 3.2 | 9.7 | 0.00 | 0.00 | 0.00 | 86 | 1023.3 |
| 20260509044538 | 12 | 218 | 4.8 | 9.7 | 0.00 | 0.00 | 0.00 | 86 | 1023.2 |
| 20260509044024 | 11 | 213 | 4.8 | 9.7 | 0.00 | 0.00 | 0.00 | 86 | 1023.2 |
| 20260509043528 | 12 | 205 | 4.8 | 8.0 | 0.00 | 0.00 | 0.00 | 86 | 1023.1 |
| 20260509043052 | 12 | 161 | 1.6 | 6.4 | 0.00 | 0.00 | 0.00 | 85 | 1023.0 |
| 20260509042525 | 12 | 187 | 1.6 | 4.8 | 0.00 | 0.00 | 0.00 | 85 | 1023.0 |
| 20260509042025 | 12 | 168 | 3.2 | 12.9 | 0.00 | 0.00 | 0.00 | 84 | 1023.1 |
| 20260509041540 | 12 | 268 | 0.0 | 12.9 | 0.00 | 0.00 | 0.00 | 84 | 1023.0 |
| 20260509041024 | 12 | 242 | 6.4 | 12.9 | 0.00 | 0.00 | 0.00 | 84 | 1022.9 |
| 20260509040524 | 12 | 257 | 3.2 | 9.7 | 0.00 | 0.00 | 0.00 | 84 | 1022.9 |
| 20260509040045 | 12 | 276 | 3.2 | 8.0 | 0.00 | 0.00 | 0.00 | 84 | 1023.0 |
| 20260509035526 | 12 | 236 | 3.2 | 8.0 | 0.00 | 0.00 | 0.00 | 83 | 1023.0 |
| 20260509035026 | 12 | 224 | 3.2 | 6.4 | 0.00 | 0.00 | 0.00 | 83 | 1022.9 |
| 20260509034540 | 12 | 234 | 1.6 | 6.4 | 0.00 | 0.00 | 0.00 | 82 | 1022.9 |
| 20260509034025 | 12 | 215 | 1.6 | 11.3 | 0.00 | 0.00 | 0.00 | 81 | 1022.9 |
| 20260509033525 | 13 | 245 | 3.2 | 11.3 | 0.00 | 0.00 | 0.00 | 81 | 1022.9 |
| 20260509033040 | 13 | 248 | 3.2 | 9.7 | 0.00 | 0.00 | 0.00 | 80 | 1022.8 |
| 20260509032527 | 13 | 208 | 1.6 | 8.0 | 0.00 | 0.00 | 0.00 | 80 | 1022.8 |
| 20260509032026 | 13 | 259 | 3.2 | 9.7 | 0.00 | 0.00 | 0.00 | 79 | 1022.8 |
| 20260509031546 | 13 | 254 | 1.6 | 12.9 | 0.00 | 0.00 | 0.00 | 79 | 1022.8 |
| 20260509031025 | 13 | 333 | 1.6 | 12.9 | 0.00 | 0.00 | 0.00 | 78 | 1022.7 |
| 20260509030528 | 13 | 271 | 6.4 | 14.5 | 0.00 | 0.00 | 0.00 | 77 | 1022.8 |
| 20260509030044 | 14 | 250 | 4.8 | 14.5 | 0.00 | 0.00 | 0.00 | 76 | 1022.7 |
| 20260509025524 | 15 | 222 | 0.0 | 8.0 | 0.00 | 0.00 | 0.00 | 75 | 1022.7 |
| 20260509025025 | 14 | 275 | 3.2 | 9.7 | 0.00 | 0.00 | 0.00 | 75 | 1022.7 |
| 20260509024541 | 15 | 237 | 4.8 | 9.7 | 0.00 | 0.00 | 0.00 | 74 | 1022.6 |
| 20260509024025 | 15 | 273 | 1.6 | 9.7 | 0.00 | 0.00 | 0.00 | 74 | 1022.6 |
| 20260509023525 | 15 | 292 | 3.2 | 14.5 | 0.00 | 0.00 | 0.00 | 74 | 1022.5 |
| 20260509023042 | 15 | 288 | 1.6 | 14.5 | 0.00 | 0.00 | 0.00 | 74 | 1022.5 |
| 20260509022525 | 15 | 292 | 4.8 | 14.5 | 0.00 | 0.00 | 0.00 | 73 | 1022.5 |
| 20260509022025 | 15 | 255 | 6.4 | 14.5 | 0.00 | 0.00 | 0.00 | 72 | 1022.3 |
| 20260509021540 | 15 | 219 | 3.2 | 11.3 | 0.00 | 0.00 | 0.00 | 72 | 1022.3 |
| 20260509021027 | 15 | 198 | 3.2 | 11.3 | 0.00 | 0.00 | 0.00 | 72 | 1022.3 |
| 20260509020526 | 15 | 264 | 4.8 | 16.1 | 0.00 | 0.00 | 0.00 | 72 | 1022.4 |
| 20260509020047 | 15 | 296 | 6.4 | 16.1 | 0.00 | 0.00 | 0.00 | 73 | 1022.4 |
| 20260509015526 | 15 | 236 | 6.4 | 11.3 | 0.00 | 0.00 | 0.00 | 72 | 1022.4 |
| 20260509015025 | 15 | 300 | 6.4 | 11.3 | 0.00 | 0.00 | 0.00 | 71 | 1022.3 |
| 20260509014542 | 16 | 315 | 4.8 | 17.7 | 0.00 | 0.00 | 0.00 | 70 | 1022.3 |
| 20260509014025 | 15 | 265 | 4.8 | 17.7 | 0.00 | 0.00 | 0.00 | 72 | 1022.3 |
| 20260509013528 | 15 | 312 | 6.4 | 12.9 | 0.00 | 0.00 | 0.00 | 71 | 1022.4 |
| 20260509013048 | 15 | 278 | 3.2 | 19.3 | 0.00 | 0.00 | 0.00 | 72 | 1022.4 |
| 20260509012525 | 15 | 320 | 6.4 | 19.3 | 0.00 | 0.00 | 0.00 | 73 | 1022.4 |
| 20260509012025 | 15 | 248 | 4.8 | 12.9 | 0.00 | 0.00 | 0.00 | 72 | 1022.3 |
| 20260509011540 | 15 | 215 | 1.6 | 9.7 | 0.00 | 0.00 | 0.00 | 72 | 1022.4 |
| 20260509011027 | 15 | 283 | 3.2 | 11.3 | 0.00 | 0.00 | 0.00 | 71 | 1022.3 |
| 20260509010525 | 15 | 275 | 3.2 | 19.3 | 0.00 | 0.00 | 0.00 | 71 | 1022.4 |
| 20260509010042 | 15 | 259 | 6.4 | 19.3 | 0.00 | 0.00 | 0.00 | 71 | 1022.5 |
| 20260509005524 | 15 | 229 | 4.8 | 16.1 | 0.00 | 0.00 | 0.00 | 70 | 1022.5 |
| 20260509005028 | 15 | 279 | 8.0 | 17.7 | 0.00 | 0.00 | 0.00 | 70 | 1022.5 |
| 20260509004601 | 16 | 289 | 6.4 | 17.7 | 0.00 | 0.00 | 0.00 | 70 | 1022.6 |
| 20260509004028 | 15 | 286 | 4.8 | 16.1 | 0.00 | 0.00 | 0.00 | 70 | 1022.6 |
| 20260509003525 | 15 | 136 | 6.4 | 17.7 | 0.00 | 0.00 | 0.00 | 71 | 1022.6 |
| 20260509003046 | 15 | 213 | 4.8 | 17.7 | 0.00 | 0.00 | 0.00 | 71 | 1022.5 |
| 20260509002525 | 15 | 227 | 6.4 | 17.7 | 0.00 | 0.00 | 0.00 | 70 | 1022.6 |
| 20260509002025 | 15 | 246 | 4.8 | 17.7 | 0.00 | 0.00 | 0.00 | 69 | 1022.5 |
| 20260509001542 | 15 | 233 | 8.0 | 19.3 | 0.00 | 0.00 | 0.00 | 69 | 1022.5 |
| 20260509001025 | 16 | 224 | 11.3 | 19.3 | 0.00 | 0.00 | 0.00 | 68 | 1022.5 |
| 20260509000524 | 16 | 276 | 6.4 | 14.5 | 0.00 | 0.00 | 0.00 | 69 | 1022.4 |
| 20260509000041 | 16 | 248 | 3.2 | 16.1 | 0.00 | 0.00 | 0.00 | 68 | 1022.5 |
| 20260508235528 | 16 | 294 | 6.4 | 16.1 | 0.00 | 0.00 | 0.00 | 68 | 1022.5 |
| 20260508235025 | 16 | 244 | 4.8 | 14.5 | 0.00 | 0.00 | 0.00 | 68 | 1022.4 |
| 20260508234539 | 16 | 271 | 6.4 | 19.3 | 0.00 | 0.00 | 0.00 | 66 | 1022.5 |
| 20260508234025 | 16 | 157 | 9.7 | 19.3 | 0.00 | 0.00 | 0.00 | 65 | 1022.5 |
| 20260508233525 | 16 | 267 | 8.0 | 16.1 | 0.00 | 0.00 | 0.00 | 66 | 1022.5 |
| 20260508233038 | 16 | 257 | 4.8 | 16.1 | 0.00 | 0.00 | 0.00 | 67 | 1022.5 |
| 20260508232526 | 16 | 211 | 6.4 | 16.1 | 0.00 | 0.00 | 0.00 | 69 | 1022.6 |
| 20260508232028 | 16 | 192 | 6.4 | 16.1 | 0.00 | 0.00 | 0.00 | 68 | 1022.4 |
| 20260508231541 | 16 | 246 | 11.3 | 16.1 | 0.00 | 0.00 | 0.00 | 66 | 1022.4 |
| 20260508231025 | 16 | 225 | 3.2 | 17.7 | 0.00 | 0.00 | 0.00 | 67 | 1022.4 |
| 20260508230524 | 16 | 286 | 8.0 | 19.3 | 0.00 | 0.00 | 0.00 | 65 | 1022.4 |
| 20260508230053 | 16 | 252 | 8.0 | 19.3 | 0.00 | 0.00 | 0.00 | 67 | 1022.4 |
| 20260508225525 | 16 | 222 | 4.8 | 14.5 | 0.00 | 0.00 | 0.00 | 66 | 1022.4 |
| 20260508225024 | 16 | 270 | 4.8 | 16.1 | 0.00 | 0.00 | 0.00 | 66 | 1022.4 |
| 20260508224541 | 15 | 244 | 8.0 | 16.1 | 0.00 | 0.00 | 0.00 | 67 | 1022.5 |
| 20260508224024 | 15 | 266 | 3.2 | 11.3 | 0.00 | 0.00 | 0.00 | 68 | 1022.5 |
| 20260508223521 | 15 | 249 | 6.4 | 12.9 | 0.00 | 0.00 | 0.00 | 67 | 1022.4 |
| 20260508223040 | 15 | 311 | 6.4 | 12.9 | 0.00 | 0.00 | 0.00 | 67 | 1022.5 |
| 20260508222524 | 15 | 284 | 4.8 | 17.7 | 0.00 | 0.00 | 0.00 | 69 | 1022.6 |
| 20260508222025 | 15 | 158 | 8.0 | 17.7 | 0.00 | 0.00 | 0.00 | 67 | 1022.5 |
| 20260508221540 | 15 | 157 | 8.0 | 17.7 | 0.00 | 0.00 | 0.00 | 67 | 1022.6 |
| 20260508221025 | 15 | 212 | 8.0 | 17.7 | 0.00 | 0.00 | 0.00 | 68 | 1022.6 |
| 20260508220524 | 15 | 182 | 8.0 | 19.3 | 0.00 | 0.00 | 0.00 | 69 | 1022.6 |
| 20260508220050 | 15 | 236 | 8.0 | 19.3 | 0.00 | 0.00 | 0.00 | 68 | 1022.6 |
| 20260508215525 | 15 | 168 | 9.7 | 17.7 | 0.00 | 0.00 | 0.00 | 68 | 1022.6 |
| 20260508215025 | 15 | 209 | 8.0 | 16.1 | 0.00 | 0.00 | 0.00 | 68 | 1022.6 |
| 20260508214547 | 15 | 225 | 6.4 | 19.3 | 0.00 | 0.00 | 0.00 | 67 | 1022.5 |
| 20260508214028 | 15 | 208 | 11.3 | 19.3 | 0.00 | 0.00 | 0.00 | 65 | 1022.6 |
| 20260508213524 | 15 | 215 | 8.0 | 17.7 | 0.00 | 0.00 | 0.00 | 65 | 1022.4 |
| 20260508213041 | 15 | 263 | 6.4 | 14.5 | 0.00 | 0.00 | 0.00 | 65 | 1022.5 |
| 20260508212524 | 15 | 250 | 4.8 | 14.5 | 0.00 | 0.00 | 0.00 | 65 | 1022.4 |
| 20260508212024 | 15 | 241 | 4.8 | 14.5 | 0.00 | 0.00 | 0.00 | 66 | 1022.4 |
| 20260508211543 | 15 | 207 | 8.0 | 19.3 | 0.00 | 0.00 | 0.00 | 68 | 1022.4 |
| 20260508211027 | 15 | 185 | 8.0 | 19.3 | 0.00 | 0.00 | 0.00 | 67 | 1022.4 |
| 20260508210527 | 15 | 258 | 8.0 | 19.3 | 0.00 | 0.00 | 0.00 | 67 | 1022.3 |
| 20260508210057 | 15 | 181 | 8.0 | 19.3 | 0.00 | 0.00 | 0.00 | 67 | 1022.2 |
| 20260508205527 | 15 | 229 | 6.4 | 19.3 | 0.00 | 0.00 | 0.00 | 67 | 1022.2 |
| 20260508205029 | 15 | 258 | 9.7 | 19.3 | 0.00 | 0.00 | 0.00 | 66 | 1022.2 |
| 20260508204539 | 15 | 195 | 8.0 | 17.7 | 0.00 | 0.00 | 0.00 | 66 | 1022.1 |
| 20260508204026 | 15 | 179 | 6.4 | 17.7 | 0.00 | 0.00 | 0.00 | 65 | 1022.1 |